Location: Bishausen
(51.6334°N, 9.9631°E)
Time: 09:07:12
(UTC+00:00)

Lacrosse 5 rocket - Pass Details

Date: 23 May 2024
Orbit: 445 x 572 km, 57.0° (Epoch: 23 June)

Event Time Altitude Azimuth Distance (km) Brightness Sun altitude
Rises 01:20:24 0° 298° (WNW) 2,738 4.9 -12.8°
Reaches altitude 10° 01:22:46 10° 291° (WNW) 1,822 3.9 -12.7°
Maximum altitude 01:26:37 39° 222° (SW) 802 1.7 -12.3°
Drops below altitude 10° 01:30:19 10° 153° (SSE) 1,740 3.6 -12.0°
Sets 01:32:31 0° 145° (SE) 2,598 4.5 -11.9°
